{"data":{"norad_id":59715,"intl_designator":"2024-088H","name":"STARLINK-11101 [DTC]","alt_names":[],"object_type":"PAYLOAD","status":"ACTIVE","operator":null,"country":"US","launch_date":"2024-05-10","launch_site_code":"AFWTR","launch_vehicle":null,"mission":null,"orbit_class":"UNKNOWN","rcs_meters":null,"size_class":null,"mass_kg":null,"dimensions":null,"purposes":["comms"],"wikipedia_slug":null,"has_3d_model":false,"image_url":null,"decayed_at":null,"tle_current":{"epoch":"2026-05-24T20:08:41.330400Z","epoch_age_seconds":89258,"freshness":"FRESH","line1":"1 59715U 24088H   26144.83936725  .00001456  00000+0  16879-4 0  9999","line2":"2 59715  53.1584 310.7845 0001336  90.8287 269.2884 15.69710081118232","mean_motion":15.69710081,"eccentricity":0.0001336,"inclination_deg":53.1584,"raan_deg":310.7845,"arg_perigee_deg":90.8287,"mean_anomaly_deg":269.2884,"bstar":1.6879e-5,"rev_number":11823,"period_min":91.736685482878,"perigee_km":358.82634006271,"apogee_km":360.62669719488,"semimajor_km":6737.8635186288,"source":"CELESTRAK","updated_at":"2026-05-25T13:38:19.047055Z"}}}